| time (UTC) | temp C | wind direction | speed KPH | gust KPH | rain 1hr cm | rain 24hr cm | rain mn cm | humidity % | barometer mb |
| 20260506013054 | 7 | 15 | 9.7 | 14.5 | 0.05 | 1.32 | 0.18 | 10 | 1007.1 |
| 20260506012054 | 7 | 16 | 8.0 | 12.9 | 0.03 | 1.30 | 0.15 | 10 | 1007.1 |
| 20260506011056 | 7 | 15 | 8.0 | 12.9 | 0.03 | 1.30 | 0.15 | 10 | 1007.2 |
| 20260506005054 | 7 | 19 | 9.7 | 16.1 | 0.03 | 1.27 | 0.15 | 10 | 1007.1 |
| 20260506004055 | 7 | 17 | 9.7 | 16.1 | 0.03 | 1.27 | 0.15 | 10 | 1007.2 |
| 20260506003053 | 7 | 17 | 9.7 | 14.5 | 0.03 | 1.27 | 0.15 | 10 | 1007.2 |
| 20260506002056 | 7 | 20 | 9.7 | 14.5 | 0.05 | 1.27 | 0.15 | 10 | 1007.4 |
| 20260505235102 | 7 | 16 | 9.7 | 14.5 | 0.05 | 1.27 | 0.15 | 10 | 1007.7 |
| 20260505233101 | 7 | 23 | 8.0 | 14.5 | 0.08 | 1.27 | 0.13 | 10 | 1007.8 |
| 20260505232104 | 7 | 12 | 8.0 | 12.9 | 0.10 | 1.27 | 0.13 | 10 | 1007.8 |
| 20260505231102 | 7 | 15 | 8.0 | 12.9 | 0.10 | 1.24 | 0.10 | 10 | 1007.8 |
| 20260505225105 | 7 | 14 | 8.0 | 12.9 | 0.10 | 1.22 | 0.08 | 10 | 1008.0 |
| 20260505224102 | 7 | 15 | 8.0 | 12.9 | 0.10 | 1.22 | 0.08 | 10 | 1008.0 |
| 20260505223102 | 7 | 17 | 8.0 | 12.9 | 0.10 | 1.19 | 0.05 | 10 | 1008.0 |
| 20260505222103 | 7 | 12 | 8.0 | 11.3 | 0.10 | 1.17 | 0.05 | 10 | 1008.1 |
| 20260505221107 | 7 | 16 | 6.4 | 11.3 | 0.08 | 1.17 | 0.03 | 10 | 1008.1 |
| 20260505220100 | 7 | 16 | 8.0 | 11.3 | 0.08 | 1.14 | 0.00 | 10 | 1008.1 |
| 20260505215111 | 7 | 22 | 8.0 | 12.9 | 0.08 | 1.14 | 1.14 | 10 | 1008.2 |
| 20260505214113 | 7 | 19 | 8.0 | 14.5 | 0.05 | 1.12 | 1.12 | 99 | 1008.2 |
| 20260505213110 | 7 | 19 | 8.0 | 14.5 | 0.05 | 1.12 | 1.12 | 99 | 1008.2 |
| 20260505212109 | 7 | 18 | 9.7 | 14.5 | 0.05 | 1.09 | 1.09 | 99 | 1008.3 |
| 20260505211107 | 7 | 16 | 8.0 | 12.9 | 0.05 | 1.09 | 1.09 | 99 | 1008.4 |
| 20260505210107 | 7 | 12 | 8.0 | 11.3 | 0.13 | 1.09 | 1.09 | 99 | 1008.4 |
| 20260505205106 | 7 | 10 | 8.0 | 12.9 | 0.13 | 1.07 | 1.07 | 99 | 1008.3 |
| 20260505203108 | 8 | 17 | 6.4 | 11.3 | 0.15 | 1.07 | 1.07 | 99 | 1008.3 |
| 20260505202108 | 8 | 22 | 8.0 | 12.9 | 0.15 | 1.07 | 1.07 | 99 | 1008.3 |
| 20260505195105 | 8 | 28 | 9.7 | 14.5 | 0.13 | 0.97 | 0.97 | 99 | 1008.2 |
| 20260505193108 | 8 | 16 | 8.0 | 14.5 | 0.15 | 0.91 | 0.91 | 99 | 1008.0 |
| 20260505192102 | 8 | 18 | 8.0 | 11.3 | 0.23 | 0.91 | 0.91 | 99 | 1008.0 |
| 20260505191106 | 8 | 30 | 8.0 | 12.9 | 0.23 | 0.89 | 0.89 | 99 | 1007.9 |
| 20260505190106 | 8 | 25 | 9.7 | 14.5 | 0.25 | 0.89 | 0.89 | 99 | 1007.9 |
| 20260505185105 | 8 | 19 | 8.0 | 11.3 | 0.28 | 0.86 | 0.86 | 99 | 1007.9 |
| 20260505184107 | 8 | 23 | 8.0 | 12.9 | 0.30 | 0.84 | 0.84 | 99 | 1007.9 |
| 20260505183101 | 8 | 25 | 6.4 | 12.9 | 0.33 | 0.79 | 0.79 | 99 | 1007.9 |
| 20260505182101 | 9 | 24 | 8.0 | 12.9 | 0.33 | 0.76 | 0.76 | 99 | 1007.9 |
| 20260505181104 | 9 | 26 | 8.0 | 12.9 | 0.28 | 0.71 | 0.71 | 99 | 1007.9 |
| 20260505180104 | 9 | 20 | 8.0 | 12.9 | 0.28 | 0.66 | 0.66 | 99 | 1007.9 |
| 20260505175059 | 9 | 22 | 8.0 | 11.3 | 0.25 | 0.61 | 0.61 | 99 | 1007.9 |
| 20260505174059 | 9 | 24 | 8.0 | 12.9 | 0.23 | 0.58 | 0.58 | 99 | 1007.9 |
| 20260505173104 | 9 | 20 | 11.3 | 14.5 | 0.23 | 0.58 | 0.53 | 99 | 1007.9 |
| 20260505172056 | 9 | 23 | 11.3 | 14.5 | 0.15 | 0.51 | 0.48 | 99 | 1008.0 |
| 20260505171100 | 9 | 25 | 9.7 | 14.5 | 0.13 | 0.48 | 0.43 | 99 | 1007.9 |
| 20260505165105 | 10 | 26 | 9.7 | 12.9 | 0.13 | 0.43 | 0.38 | 99 | 1008.0 |
| 20260505164059 | 10 | 30 | 9.7 | 12.9 | 0.13 | 0.41 | 0.36 | 99 | 1008.0 |
| 20260505163104 | 10 | 27 | 11.3 | 14.5 | 0.13 | 0.38 | 0.33 | 99 | 1008.0 |
| 20260505162100 | 10 | 26 | 11.3 | 16.1 | 0.10 | 0.36 | 0.33 | 99 | 1008.0 |
| 20260505153059 | 10 | 22 | 9.7 | 14.5 | 0.05 | 0.28 | 0.23 | 98 | 1008.2 |
| 20260505152059 | 10 | 22 | 9.7 | 14.5 | 0.05 | 0.25 | 0.23 | 98 | 1008.2 |
| 20260505151056 | 10 | 22 | 8.0 | 14.5 | 0.05 | 0.25 | 0.23 | 98 | 1008.3 |
| 20260505140106 | 11 | 14 | 11.3 | 16.1 | 0.00 | 0.23 | 0.18 | 97 | 1008.3 |
| 20260505124058 | 11 | 11 | 8.0 | 14.5 | 0.00 | 0.36 | 0.18 | 94 | 1008.7 |
| 20260505123057 | 11 | 11 | 8.0 | 12.9 | 0.00 | 0.43 | 0.18 | 96 | 1008.8 |
| 20260505122056 | 11 | 5 | 8.0 | 12.9 | 0.00 | 0.46 | 0.18 | 96 | 1008.9 |
| 20260505121054 | 11 | 359 | 6.4 | 12.9 | 0.05 | 0.48 | 0.18 | 97 | 1009.0 |
| 20260505120057 | 11 | 355 | 4.8 | 11.3 | 0.10 | 0.51 | 0.18 | 97 | 1009.0 |
| 20260505115056 | 11 | 340 | 4.8 | 9.7 | 0.18 | 0.51 | 0.18 | 97 | 1009.1 |
| 20260505114058 | 11 | 332 | 6.4 | 11.3 | 0.18 | 0.51 | 0.18 | 97 | 1009.0 |
| 20260505113056 | 11 | 345 | 6.4 | 11.3 | 0.18 | 0.51 | 0.18 | 97 | 1009.1 |
| 20260505111058 | 11 | 330 | 4.8 | 9.7 | 0.18 | 0.51 | 0.18 | 97 | 1009.3 |
| 20260505102056 | 11 | 350 | 6.4 | 9.7 | 0.00 | 0.38 | 0.00 | 93 | 1009.4 |
| 20260505100055 | 11 | 351 | 3.2 | 9.7 | 0.00 | 0.38 | 0.00 | 92 | 1009.5 |
| 20260505095054 | 12 | 349 | 4.8 | 8.0 | 0.00 | 0.38 | 0.00 | 91 | 1009.4 |
| 20260505094056 | 12 | 249 | 4.8 | 8.0 | 0.00 | 0.38 | 0.00 | 88 | 1009.4 |
| 20260505092056 | 12 | 173 | 1.6 | 6.4 | 0.00 | 0.38 | 0.00 | 90 | 1009.5 |
| 20260505091057 | 12 | 82 | 1.6 | 8.0 | 0.00 | 0.38 | 0.00 | 90 | 1009.5 |
| 20260505090056 | 12 | 202 | 4.8 | 8.0 | 0.00 | 0.38 | 0.00 | 90 | 1009.5 |
| 20260505084057 | 11 | 231 | 1.6 | 6.4 | 0.00 | 0.38 | 0.00 | 93 | 1009.6 |
| 20260505083057 | 11 | 72 | 1.6 | 8.0 | 0.00 | 0.38 | 0.00 | 94 | 1009.8 |
| 20260505082057 | 11 | 60 | 3.2 | 9.7 | 0.00 | 0.38 | 0.00 | 94 | 1009.9 |
| 20260505081056 | 11 | 47 | 4.8 | 8.0 | 0.00 | 0.38 | 0.00 | 94 | 1009.9 |
| 20260505080056 | 11 | 74 | 3.2 | 8.0 | 0.00 | 0.38 | 0.00 | 93 | 1010.0 |
| 20260505075052 | 11 | 75 | 1.6 | 4.8 | 0.00 | 0.38 | 0.00 | 93 | 1010.0 |
| 20260505074058 | 11 | 103 | 0.0 | 3.2 | 0.00 | 0.38 | 0.00 | 94 | 1010.0 |
| 20260505073054 | 11 | 88 | 0.0 | 0.0 | 0.00 | 0.38 | 0.00 | 94 | 1010.1 |
| 20260505071057 | 10 | 218 | 0.0 | 0.0 | 0.00 | 0.38 | 0.00 | 95 | 1010.2 |
| 20260505070051 | 10 | 241 | 0.0 | 3.2 | 0.00 | 0.38 | 0.00 | 96 | 1010.2 |
| 20260505065057 | 10 | 211 | 0.0 | 3.2 | 0.00 | 0.38 | 0.00 | 96 | 1010.4 |
| 20260505064052 | 10 | 204 | 0.0 | 1.6 | 0.00 | 0.38 | 0.00 | 97 | 1010.4 |
| 20260505063053 | 10 | 238 | 0.0 | 0.0 | 0.00 | 0.38 | 0.00 | 98 | 1010.4 |
| 20260505062052 | 10 | 121 | 0.0 | 1.6 | 0.00 | 0.38 | 0.00 | 98 | 1010.5 |
| 20260505061054 | 10 | 82 | 0.0 | 0.0 | 0.00 | 0.38 | 0.00 | 98 | 1010.5 |
| 20260505060056 | 10 | 85 | 0.0 | 1.6 | 0.00 | 0.38 | 0.00 | 98 | 1010.5 |
| 20260505055055 | 10 | 87 | 0.0 | 3.2 | 0.00 | 0.38 | 0.00 | 99 | 1010.5 |
| 20260505054058 | 10 | 232 | 0.0 | 1.6 | 0.00 | 0.38 | 0.00 | 99 | 1010.4 |
| 20260505053055 | 10 | 106 | 0.0 | 4.8 | 0.00 | 0.38 | 0.00 | 99 | 1010.4 |
| 20260505052053 | 10 | 155 | 0.0 | 1.6 | 0.00 | 0.38 | 0.00 | 99 | 1010.4 |
| 20260505051057 | 10 | 176 | 0.0 | 3.2 | 0.00 | 0.38 | 0.00 | 99 | 1010.4 |
| 20260505040053 | 10 | 177 | 0.0 | 3.2 | 0.00 | 0.38 | 0.00 | 98 | 1010.5 |
| 20260505035057 | 10 | 186 | 0.0 | 3.2 | 0.00 | 0.38 | 0.00 | 98 | 1010.7 |
| 20260505034055 | 10 | 187 | 1.6 | 6.4 | 0.00 | 0.38 | 0.00 | 98 | 1010.8 |
| 20260505033058 | 10 | 213 | 0.0 | 4.8 | 0.00 | 0.38 | 0.00 | 98 | 1010.9 |
| 20260505032055 | 10 | 186 | 0.0 | 4.8 | 0.00 | 0.38 | 0.00 | 98 | 1010.9 |
| 20260505031056 | 10 | 180 | 0.0 | 0.0 | 0.00 | 0.38 | 0.00 | 98 | 1011.0 |
| 20260505030055 | 10 | 194 | 0.0 | 1.6 | 0.00 | 0.38 | 0.00 | 98 | 1011.0 |
| 20260505025055 | 10 | 152 | 0.0 | 3.2 | 0.00 | 0.38 | 0.00 | 98 | 1011.1 |
| 20260505024057 | 10 | 197 | 0.0 | 0.0 | 0.00 | 0.38 | 0.00 | 98 | 1011.2 |
| 20260505023058 | 10 | 185 | 0.0 | 0.0 | 0.00 | 0.38 | 0.00 | 98 | 1011.3 |
| 20260505022055 | 10 | 167 | 0.0 | 0.0 | 0.00 | 0.38 | 0.00 | 98 | 1011.4 |
| 20260505021056 | 10 | 88 | 0.0 | 0.0 | 0.00 | 0.38 | 0.00 | 98 | 1011.4 |
| 20260505020058 | 10 | 184 | 0.0 | 3.2 | 0.00 | 0.38 | 0.00 | 98 | 1011.5 |
| 20260505015055 | 10 | 205 | 0.0 | 1.6 | 0.00 | 0.38 | 0.00 | 98 | 1011.5 |